Location: *
(45.1961°N, 1.9694°E)
Time: 04:06:59
(UTC+00:00)

Cosmos 1346 Rocket - Pass Details

Date: 25 August 2019
Orbit: 520 x 559 km, 81.2° (Epoch: 13 October)

Event Time Altitude Azimuth Distance (km) Brightness Sun altitude
Exits shadow 20:49:05 58° 177° (S) 615 2.7 -20.4°
Maximum altitude 20:49:47 83° 101° (E) 532 2.5 -20.4°
Drops below altitude 10° 20:53:41 10° 12° (NNE) 1,772 5.8 -21.0°
Sets 20:55:51 0° 12° (NNE) 2,669 6.7 -21.2°
